Home   Weather   Mesa   Past weeks

Flag for USA Past Weather in Mesa, Arizona, USA — Yesterday and Last 2 Weeks

Now
57 °F

Scattered clouds.


Feels Like: 57 °F
Forecast: 40 / 60 °F
Wind: 5 mph from Northwest

Location: Phoenix–Mesa Gateway Airport

Current Time: Dec 2, 2016 at 3:25:01 pm

Latest Report: Dec 2, 2016 at 2:47 pm


Visibility: 20 mi

Pressure: 29.91 "Hg

Humidity: 27%

Dew Point: 23 °F

Location of MesaLocation

Past Weather in Mesa — Graph

°F

Mesa Temperature Yesterday

Maximum temperature yesterday: 59 °F (at 2:47 pm)
Minimum temperature yesterday: 36 °F (at 12:55 am)
Average temperature yesterday: 43 °F

High & Low Weather Summary for the Past Weeks

 TemperatureHumidityPressure
High84 °F (Nov 19, 3:47 pm)100% (Nov 28, 6:50 am)30.20 "Hg (Nov 28, 6:50 am)
Low34 °F (Nov 30, 6:50 am)7% (Nov 18, 2:47 pm)29.78 "Hg (Nov 28, 3:47 pm)
Average53 °F52%30.02 "Hg
* Reported Nov 17 1:50 pm — Dec 2 1:50 pm, Mesa, Weather by CustomWeather, © 2016

Note: Actual official high and low records may vary slightly from our data, if they occured in-between our weather recording intervals... More about our weather records

Advertising

Mesa Weather History for the Previous 24 Hours

Scroll right to see more
 ConditionsComfort  
Time TempWeatherWind HumidityBarometerVisibility
1:50 pm
Fri, Dec 2
57 °FPartly sunny.5 mph29%29.90 "Hg45 mi
12:47 pm55 °FPartly sunny.3 mph31%29.92 "Hg30 mi
11:47 am54 °FScattered clouds.5 mph35%29.93 "Hg20 mi
10:43 am52 °FScattered clouds.No wind38%29.95 "Hg20 mi
9:56 am48 °FPartly sunny.No wind43%29.94 "Hg45 mi
8:51 am46 °FOvercast.5 mph50%29.93 "Hg45 mi
7:50 am43 °FBroken clouds.7 mph57%29.91 "Hg35 mi
6:53 am39 °FOvercast.6 mph70%29.90 "Hg20 mi
5:47 am41 °FPassing clouds.3 mph66%29.88 "Hg20 mi
4:47 am41 °FPartly cloudy.3 mph66%29.88 "Hg20 mi
4:15 am41 °FClear.No wind66%29.89 "Hg10 mi
3:55 am41 °FClear.No wind66%29.88 "Hg10 mi
3:35 am41 °FClear.3 mph66%29.88 "Hg10 mi
3:15 am41 °FClear.5 mph66%29.89 "Hg10 mi
2:55 am41 °FClear.7 mph66%29.88 "Hg10 mi
2:35 am41 °FClear.8 mph66%29.89 "Hg10 mi
2:15 am41 °FClear.5 mph66%29.89 "Hg10 mi
1:55 am41 °FClear.6 mph66%29.89 "Hg10 mi
1:35 am41 °FClear.6 mph66%29.89 "Hg10 mi
1:15 am41 °FClear.5 mph66%29.89 "Hg10 mi
12:55 am41 °FClear.6 mph66%29.90 "Hg10 mi
12:35 am41 °FClear.7 mph66%29.90 "Hg10 mi
12:15 am41 °FClear.6 mph66%29.90 "Hg10 mi
11:47 pm
Thu, Dec 1
43 °FPassing clouds.6 mph57%29.91 "Hg20 mi
10:55 pm43 °FPassing clouds.6 mph57%29.91 "Hg20 mi
9:47 pm45 °FPassing clouds.5 mph53%29.92 "Hg20 mi
8:47 pm48 °FPassing clouds.5 mph46%29.92 "Hg20 mi
7:51 pm48 °FPassing clouds.3 mph43%29.92 "Hg20 mi
6:47 pm54 °FPassing clouds.3 mph33%29.90 "Hg20 mi
5:47 pm57 °FPassing clouds.3 mph25%29.89 "Hg20 mi
4:48 pm59 °FPassing clouds.No wind23%29.89 "Hg45 mi
3:47 pm59 °FPassing clouds.5 mph23%29.90 "Hg45 mi
Weather by CustomWeather, © 2016

See weather overviewHow to use our weather pages